{"data":{"norad_id":60440,"epoch":"2026-09-21T16:43:11.347968Z","epoch_age_seconds":85416,"freshness":"FRESH","line1":"1 60440U 24144R   26264.69665912 -.00000587  00000+0 -62603-5 0  9996","line2":"2 60440  53.1614  22.0922 0000842  79.6642 280.4455 15.34398689119387","mean_motion":15.34398689,"eccentricity":8.42e-5,"inclination_deg":53.1614,"raan_deg":22.0922,"arg_perigee_deg":79.6642,"mean_anomaly_deg":280.4455,"bstar":-6.2603e-6,"rev_number":11938,"period_min":93.847838265456,"perigee_km":462.13113770184,"apogee_km":463.28313585448,"semimajor_km":6840.8441367782,"source":"CELESTRAK","updated_at":"2026-09-22T09:00:49.236622Z"}}